Location: Bottens
(46.6171°N, 6.6605°E)
Time: 05:38:04
(UTC+00:00)

Lacrosse 5 rocket - Visible Passes

Search period start: 18 October 2021 00:00
Search period end: 28 October 2021 00:00
Orbit: 464 x 629 km, 57.0° (Epoch: 17 October)

Date Brightness Start Highest point End Pass type
(mag) Time Alt. Az. Time Alt. Az. Time Alt. Az.
18 Oct 2.0 03:50:35 39° S 03:51:44 53° SE 03:56:02 10° ENE visible
19 Oct 1.5 03:45:01 63° S 03:45:23 68° SE 03:49:46 10° NE visible
19 Oct 2.4 05:20:58 10° W 05:24:51 32° NNW 05:28:56 10° NE visible
20 Oct 1.4 03:39:20 77° ENE 03:39:20 77° ENE 03:43:28 10° NE visible
20 Oct 2.6 05:14:57 10° W 05:18:40 29° NNW 05:22:37 10° NE visible
21 Oct 1.9 03:33:33 57° NNE 03:33:33 57° NNE 03:37:10 10° NE visible
21 Oct 2.8 05:09:10 12° WNW 05:12:29 26° NNW 05:16:18 10° NE visible
22 Oct 2.4 03:27:43 42° NNE 03:27:43 42° NNE 03:30:50 10° NE visible
22 Oct 2.9 05:03:19 13° WNW 05:06:19 24° NNW 05:10:01 10° NE visible
23 Oct 2.9 03:21:49 33° NNE 03:21:49 33° NNE 03:24:30 10° NE visible
23 Oct 3.1 04:57:25 14° NW 05:00:09 23° N 05:03:45 10° NE visible
24 Oct 3.2 03:15:52 27° NNE 03:15:52 27° NNE 03:18:09 10° NE visible
24 Oct 3.1 04:51:28 14° NW 04:53:59 22° N 04:57:31 10° NE visible
25 Oct 3.5 03:09:53 22° NNE 03:09:53 22° NNE 03:11:48 10° NE visible
25 Oct 3.2 04:45:29 15° NW 04:47:50 21° N 04:51:18 10° NE visible
26 Oct 3.8 03:03:53 19° NNE 03:03:53 19° NNE 03:05:27 10° NE visible
26 Oct 3.3 04:39:29 15° NW 04:41:40 21° N 04:45:07 10° NE visible
27 Oct 4.0 02:57:51 17° NNE 02:57:51 17° NNE 02:59:07 10° NE visible
27 Oct 3.3 04:33:27 16° NNW 04:35:31 21° N 04:38:58 10° NE visible
